www.pogodaiklimat.ru

Погода и климат >> Архив погоды >> Австралия >> Bourke Airport Aws


ПОГОДА в Bourke Airport Aws

  • Прогноз погоды в Bourke Airport Aws
  • Монитор погоды в Bourke Airport Aws
  • Климат города

АРХИВ ПОГОДЫ в Bourke Airport Aws

Время (UTC), дата Ветер
(напр.,м/с)
 
Видим.   Явления Облачность Т
(С)
Тd
(С)
f
(%)
Тe
(С)
Тes
(С)
Комфортность P
(гПа)
Po
(гПа)
Тmin
(С)
Tmax
(С)
R
(мм)
R24
(мм)
S
(см)
16 16.10 ЮВ 3 н/о н/о +18.5 +11.3 63 +19 +19 1018.7 1006.1
17 16.10 В 4 н/о н/о +18.2 +11.3 64 +18 +18 1018.9 1006.3
18 16.10 В 4 н/о н/о +17.6 +11.4 67 +17 +17 1019.3 1006.7
19 16.10 В 4 н/о н/о +18.1 +11.4 65 +18 +18 1019.8 1007.2
20 16.10 В 5 н/о н/о +18.0 +11.1 64 +18 +18 1020.5 1007.9
21 16.10 В 6 н/о н/о +19.8 +11.0 57 +21 +21 комфорт 1021.1 1008.5
22 16.10 В 8 н/о н/о +22.2 +10.4 47 +24 +24 комфорт 1021.6 1009.0
23 16.10 В 9 н/о н/о +23.1 +10.2 44 +25 +25 комфорт 1021.6 1009.0
00 17.10 СВ 8 н/о н/о +25.3 +10.7 40 +26 +26 жарко 1021.3 1008.7
01 17.10 В 9 н/о н/о +26.4 +9.3 34 +27 +27 жарко 1020.1 1007.5 +17.4
02 17.10 В 8 н/о н/о +27.7 +9.0 31 +28 +28 жарко 1019.3 1006.7
03 17.10 СВ 7 н/о н/о +28.5 +8.7 29 +28 +28 жарко 1018.2 1005.6
04 17.10 В 7 н/о н/о +29.9 +8.9 27 +29 +29 жарко 1017.4 1004.8
05 17.10 СВ 8 н/о н/о +29.6 +6.9 24 +28 +28 жарко 1016.5 1004.0
06 17.10 В 9 н/о н/о +30.2 +7.4 24 +29 +29 жарко 1016.2 1003.7
07 17.10 СВ 8 н/о н/о +29.6 +5.6 22 +28 +28 жарко 1016.5 1004.0
08 17.10 СВ 8 н/о н/о +27.3 +9.2 32 +27 +27 жарко 1017.4 1004.8
09 17.10 СВ 8 н/о н/о +25.2 +11.0 41 +26 +26 жарко 1018.3 1005.7
10 17.10 СВ 6 н/о н/о +24.2 +11.5 45 +26 +26 жарко 1019.4 1006.8
11 17.10 СВ 7 н/о н/о +24.1 +12.1 47 +26 +26 жарко 1020.4 1007.8
12 17.10 СВ 6 н/о н/о +23.4 +12.7 51 +26 +26 жарко 1020.6 1008.0
13 17.10 СВ 6 н/о н/о +23.1 +12.1 50 +26 +26 жарко 1020.4 1007.8 +30.8
14 17.10 СВ 5 н/о н/о +22.5 +11.6 50 +25 +25 комфорт 1020.4 1007.8
15 17.10 В 3 н/о н/о +21.9 +12.2 54 +24 +24 комфорт 1019.9 1007.3
16 17.10 СВ 5 н/о н/о +22.4 +11.8 51 +25 +25 комфорт 1019.4 1006.8
17 17.10 СВ 6 н/о н/о +22.2 +11.6 51 +24 +24 комфорт 1019.2 1006.6
18 17.10 СВ 9 н/о н/о +22.2 +11.9 52 +25 +25 комфорт 1019.4 1006.8
19 17.10 СВ 7 н/о н/о +21.3 +11.6 54 +23 +23 комфорт 1020.0 1007.4
20 17.10 В 8 н/о н/о +21.1 +11.7 55 +23 +23 комфорт 1020.5 1007.9
21 17.10 В 10 н/о н/о +22.0 +11.4 51 +24 +24 комфорт 1021.0 1008.4
22 17.10 В 10 н/о н/о +22.9 +11.0 47 +25 +25 комфорт 1021.5 1008.9
23 17.10 СВ 10 н/о н/о +24.9 +11.1 42 +26 +26 жарко 1021.8 1009.2
00 18.10 СВ 10 н/о н/о +25.8 +11.2 40 +27 +27 жарко 1021.4 1008.8
01 18.10 СВ 10 н/о н/о +27.9 +11.9 37 +29 +29 жарко 1020.3 1007.7 +20.9
02 18.10 СВ 8 н/о н/о +29.7 +12.2 34 +31 +31 жарко 1019.6 1007.0
03 18.10 СВ 9 н/о н/о +30.8 +13.1 34 +32 +32 жарко 1018.5 1005.9
04 18.10 СВ 9 н/о н/о +30.7 +12.1 32 +31 +31 жарко 1017.6 1005.0
05 18.10 СВ 8 н/о н/о +31.6 +12.4 31 +32 +32 жарко 1016.8 1004.2
06 18.10 СВ 9 н/о н/о +30.7 +12.6 33 +32 +32 жарко 1016.4 1003.9
07 18.10 СВ 8 н/о н/о +30.1 +12.1 33 +31 +31 жарко 1016.6 1004.1
08 18.10 СВ 7 н/о н/о +28.9 +13.2 38 +30 +30 жарко 1017.4 1004.8
09 18.10 СВ 8 н/о н/о +27.9 +13.4 41 +30 +30 жарко 1017.9 1005.3
10 18.10 В 6 н/о н/о +27.2 +13.2 42 +29 +29 жарко 1018.5 1005.9
11 18.10 В 5 н/о н/о +26.4 +13.5 45 +28 +28 жарко 1019.4 1006.8
12 18.10 В 4 н/о н/о +25.4 +13.9 49 +28 +28 жарко 1019.9 1007.3
13 18.10 СВ 3 н/о н/о +24.8 +14.3 52 +27 +27 жарко 1019.9 1007.3 +32.2
14 18.10 СВ 5 н/о н/о +25.3 +14.4 51 +28 +28 жарко 1019.7 1007.1
15 18.10 СВ 8 н/о н/о +25.8 +14.6 50 +28 +28 жарко 1019.5 1006.9
16 18.10 СВ 5 н/о н/о +24.9 +15.0 54 +28 +28 жарко 1019.5 1006.9
17 18.10 СВ 9 н/о н/о +24.8 +13.0 48 +27 +27 жарко 1019.3 1006.7
18 18.10 СВ 6 н/о н/о +23.8 +13.4 52 +26 +26 жарко 1019.4 1006.8
19 18.10 СВ 6 н/о н/о +23.2 +13.7 55 +27 +27 душно 1019.9 1007.3
20 18.10 СВ 6 н/о н/о +22.8 +13.8 57 +26 +26 жарко 1020.6 1008.0
21 18.10 СВ 6 н/о н/о +23.2 +14.2 57 +27 +27 душно 1021.1 1008.5
22 18.10 В 5 н/о н/о +23.2 +15.3 61 +27 +27 душно 1021.7 1009.1
23 18.10 СВ 6 н/о н/о +22.8 +17.0 70 +28 +28 душно 1021.8 1009.2
00 19.10 СВ 7 н/о н/о +26.7 +15.7 51 +30 +30 душно 1021.2 1008.6
01 19.10 С 7 н/о н/о +26.7 +15.1 49 +29 +29 жарко 1020.6 1008.0 +21.8
02 19.10 СВ 6 н/о н/о +26.5 +15.2 50 +29 +29 жарко 1020.2 1007.6
03 19.10 СВ 3 н/о н/о +27.0 +18.6 60 +32 +32 очень
душно
1019.6 1007.0
04 19.10 В 3 н/о н/о +26.8 +16.4 53 +30 +30 душно 1019.0 1006.4
05 19.10 ЮВ 5 н/о н/о +27.1 +16.1 51 +30 +30 душно 1018.2 1005.6
06 19.10 ЮВ 5 н/о н/о +27.1 +16.7 53 +31 +31 душно 1017.8 1005.2
07 19.10 ЮВ 4 н/о н/о +26.3 +17.1 57 +30 +30 душно 1017.7 1005.1
08 19.10 ЮВ 4 н/о н/о +25.8 +17.4 60 +30 +30 душно 1017.7 1005.1
09 19.10 ЮВ 5 н/о н/о +24.4 +19.2 73 +29 +29 душно 1018.0 1005.4
10 19.10 ЮВ 5 н/о н/о +23.7 +19.2 76 +29 +29 душно 1018.1 1005.5
11 19.10 Ю 6 н/о н/о +23.1 +19.1 78 +29 +29 очень
душно
1018.8 1006.2
12 19.10 Ю 5 н/о н/о +22.7 +19.1 80 +29 +29 очень
душно
1018.7 1006.1
13 19.10 ЮЗ 4 н/о туман н/о +20.9 +19.4 91 +26 +26 душно 1019.5 1006.9 +28.6
14 19.10 З 4 н/о н/о +20.4 +19.6 95 +24 +24 комфорт 1019.7 1007.1
15 19.10 З 1 н/о н/о +20.4 +19.6 95 +26 +26 душно 1019.2 1006.6
16 19.10 Ю 4 н/о туман н/о +20.4 +19.7 96 +25 +25 комфорт 1018.9 1006.3
17 19.10 В 3 н/о н/о +19.7 +18.9 95 +23 +23 комфорт 1017.9 1005.3
18 19.10 ЮВ 3 н/о н/о +19.7 +18.9 95 +23 +23 комфорт 1018.2 1005.6
19 19.10 Ю 3 н/о в посл. час дождь {туман} н/о +19.5 +18.7 95 +22 +22 комфорт 1018.7 1006.1
20 19.10 Ю 3 н/о н/о +19.7 +18.9 95 +23 +23 комфорт 1019.5 1006.9
21 19.10 ЮВ 4 н/о н/о +19.7 +18.9 95 +23 +23 комфорт 1019.6 1007.0
22 19.10 В 5 н/о туман местами н/о +19.6 +18.8 95 +22 +22 комфорт 1018.8 1006.2
23 19.10 Ю 4 н/о н/о +20.4 +19.2 93 +24 +24 комфорт 1020.7 1008.1
00 20.10 Ю 4 н/о н/о +21.3 +19.4 89 +26 +26 душно 1020.7 1008.1
01 20.10 Ю 5 н/о {туман} н/о +21.2 +18.4 84 +25 +25 комфорт 1020.7 1008.1 +19.5
02 20.10 Ю 5 н/о н/о +21.1 +17.9 82 +25 +25 комфорт 1020.4 1007.8
03 20.10 Ю 5 н/о н/о +20.4 +17.0 81 +24 +24 комфорт 1020.1 1007.5
04 20.10 Ю 4 н/о {туман} н/о +20.7 +17.3 81 +25 +25 комфорт 1019.4 1006.8
05 20.10 ЮЗ 4 н/о н/о +22.2 +16.5 70 +26 +26 душно 1018.5 1005.9
06 20.10 ЮЗ 5 н/о н/о +22.8 +16.1 66 +27 +27 душно 1018.2 1005.6
07 20.10 ЮЗ 4 н/о {туман} н/о +23.0 +15.3 62 +27 +27 душно 1018.3 1005.7
08 20.10 Ю 5 н/о н/о +22.5 +14.1 59 +26 +26 жарко 1018.5 1005.9
09 20.10 Ю 5 н/о н/о +21.4 +13.1 59 +24 +24 комфорт 1019.4 1006.8
10 20.10 Ю 5 н/о {туман} н/о +20.8 +11.2 54 +23 +23 комфорт 1020.1 1007.5
11 20.10 Ю 5 н/о н/о +19.9 +10.9 56 +21 +21 комфорт 1020.3 1007.7
12 20.10 Ю 5 н/о н/о +18.7 +10.3 58 +19 +19 1020.3 1007.7
13 20.10 ЮЗ 5 н/о н/о +17.8 +9.4 58 +17 +17 1020.4 1007.8 +23.4
14 20.10 Ю 5 н/о н/о +17.0 +7.9 55 +16 +16 1020.3 1007.7
15 20.10 Ю 4 н/о н/о +15.9 +7.9 59 +15 +15 1019.9 1007.3
16 20.10 Ю 4 н/о н/о +15.1 +7.4 60 +14 +14 1019.4 1006.8
17 20.10 Ю 5 н/о н/о +14.7 +6.8 59 +13 +13 1019.0 1006.4
18 20.10 Ю 5 н/о н/о +14.1 +6.0 58 +12 +12 1018.9 1006.3
19 20.10 Ю 4 н/о н/о +13.3 +5.7 60 +12 +12 1019.0 1006.4
20 20.10 ЮЗ 5 н/о н/о +12.7 +5.8 63 +11 +11 1019.3 1006.7
21 20.10 Ю 5 н/о н/о +14.0 +5.4 56 +13 +13 1019.6 1007.0
22 20.10 Ю 6 н/о н/о +16.2 +6.6 53 +15 +15 1019.8 1007.2
23 20.10 Ю 6 н/о н/о +17.2 +8.6 57 +16 +16 1020.2 1007.6
00 21.10 Ю 5 н/о н/о +18.7 +10.0 57 +19 +19 1019.9 1007.3
01 21.10 Ю 5 н/о н/о +20.1 +10.5 54 +22 +22 комфорт 1019.4 1006.8 +12.7
02 21.10 ЮЗ 5 н/о н/о +20.7 +9.9 50 +22 +22 комфорт 1018.8 1006.2
03 21.10 Ю 5 н/о н/о +22.1 +10.9 49 +24 +24 комфорт 1018.0 1005.4
04 21.10 Ю 5 н/о н/о +23.5 +10.9 45 +25 +25 комфорт 1017.0 1004.4
05 21.10 Ю 4 н/о н/о +24.0 +9.2 39 +25 +25 комфорт 1016.1 1003.6
06 21.10 ЮЗ 4 н/о н/о +24.6 +8.1 35 +25 +25 комфорт 1015.6 1003.1
07 21.10 ЮЗ 5 н/о н/о +24.4 +8.4 36 +25 +25 комфорт 1015.3 1002.8
08 21.10 Ю 5 н/о н/о +23.7 +7.3 35 +24 +24 комфорт 1015.5 1003.0
09 21.10 ЮЗ 3 н/о н/о +21.6 +9.2 45 +23 +23 комфорт 1015.8 1003.3
10 21.10 ЮЗ 3 н/о н/о +19.8 +10.5 55 +22 +22 комфорт 1016.1 1003.6
11 21.10 ЮЗ 3 н/о н/о +18.9 +10.7 59 +20 +20 1016.3 1003.8
12 21.10 ЮЗ 4 н/о н/о +19.0 +9.8 55 +20 +20 1016.3 1003.8
13 21.10 ЮЗ 4 н/о н/о +18.5 +9.0 54 +19 +19 1016.2 1003.7 +25.1
14 21.10 ЮЗ 4 н/о н/о +17.5 +8.1 54 +17 +17 1016.0 1003.5
15 21.10 Ю 4 н/о н/о +17.1 +6.3 49 +17 +17 1015.4 1002.9
16 21.10 Ю 4 н/о н/о +16.2 +6.3 52 +16 +16 1014.9 1002.4
17 21.10 Ю 4 н/о н/о +15.5 +6.2 54 +15 +15 1014.6 1002.1
18 21.10 ЮЗ 3 н/о н/о +14.5 +6.1 57 +14 +14 1014.4 1001.9
19 21.10 Ю 3 н/о н/о +13.6 +6.2 61 +13 +13 1014.7 1002.2
20 21.10 Ю 4 н/о н/о +13.9 +6.0 59 +13 +13 1015.2 1002.7
21 21.10 Ю 6 н/о н/о +15.6 +6.3 54 +14 +14 1015.9 1003.4
22 21.10 Ю 6 н/о н/о +17.5 +6.1 47 +17 +17 1016.4 1003.9
23 21.10 Ю 6 н/о н/о +19.0 +7.4 47 +19 +19 1016.6 1004.1
00 22.10 Ю 4 н/о н/о +20.6 +6.5 40 +22 +22 комфорт 1016.3 1003.8
01 22.10 ЮЗ 5 н/о н/о +22.1 +5.1 33 +22 +22 комфорт 1015.8 1003.3 +13.5
02 22.10 ЮЗ 5 н/о н/о +21.9 +1.6 26 +22 +22 комфорт 1015.1 1002.6
03 22.10 ЮЗ 4 н/о н/о +22.3 +2.9 28 +22 +22 комфорт 1014.1 1001.6
04 22.10 ЮЗ 6 н/о н/о +24.0 +3.3 26 +23 +23 комфорт 1013.3 1000.8
05 22.10 ЮЗ 5 н/о н/о +24.5 +2.6 24 +24 +24 комфорт 1012.7 1000.2
06 22.10 ЮЗ 5 н/о н/о +24.4 +1.3 22 +23 +23 комфорт 1012.6 1000.1
07 22.10 ЮЗ 5 н/о н/о +24.3 +0.6 21 +23 +23 комфорт 1012.7 1000.2
08 22.10 ЮЗ 4 н/о н/о +23.5 +1.2 23 +23 +23 комфорт 1013.2 1000.7
09 22.10 ЮЗ 3 н/о н/о +20.7 +4.3 34 +22 +22 комфорт 1014.1 1001.6
10 22.10 ЮЗ 2 н/о н/о +18.8 +5.6 42 +20 +20 1014.7 1002.2
11 22.10 Ю 4 н/о н/о +18.8 +4.6 39 +19 +19 1015.4 1002.9
12 22.10 Ю 3 н/о н/о +17.8 +5.1 43 +18 +18 1015.7 1003.2
13 22.10 ЮЗ 3 н/о н/о +16.9 +5.2 46 +17 +17 1015.8 1003.3 +25.2
14 22.10 ЮЗ 3 н/о н/о +15.7 +5.6 51 +15 +15 1015.7 1003.2
15 22.10 ЮЗ 3 н/о н/о +15.1 +6.1 55 +15 +15 1015.0 1002.5
16 22.10 ЮЗ 3 н/о н/о +14.7 +6.0 56 +14 +14 1014.5 1002.0
17 22.10 Ю 3 н/о н/о +14.6 +6.7 59 +14 +14 1014.3 1001.8
18 22.10 ЮЗ 3 н/о н/о +14.0 +6.4 60 +13 +13 1014.4 1001.9
19 22.10 Ю 3 н/о н/о +13.2 +7.0 66 +12 +12 1014.9 1002.4
20 22.10 Ю 3 н/о н/о +13.7 +7.2 65 +13 +13 1015.6 1003.1
21 22.10 Ю 4 н/о н/о +16.6 +7.5 55 +16 +16 1016.2 1003.7
22 22.10 ЮВ 5 н/о н/о +18.6 +7.4 48 +19 +19 1017.0 1004.4
23 22.10 ЮВ 5 н/о н/о +20.6 +7.2 42 +22 +22 комфорт 1017.4 1004.8
00 23.10 ЮЗ 5 н/о н/о +21.8 +6.1 36 +22 +22 комфорт 1017.3 1004.7
01 23.10 Ю 4 н/о н/о +23.0 +5.4 32 +23 +23 комфорт 1016.6 1004.1 +12.7
02 23.10 ЮЗ 3 н/о н/о +23.3 +4.3 29 +23 +23 комфорт 1016.0 1003.5
03 23.10 ЮЗ 3 н/о н/о +24.4 +5.2 29 +24 +24 комфорт 1015.4 1002.9
04 23.10 Ю 4 н/о н/о +24.7 +3.4 25 +24 +24 комфорт 1014.7 1002.2
05 23.10 З 3 н/о н/о +26.0 +5.0 26 +25 +25 комфорт 1014.0 1001.5
06 23.10 Ю 4 н/о н/о +26.0 +3.3 23 +25 +25 комфорт 1013.6 1001.1
07 23.10 Ю 3 н/о н/о +25.8 +3.7 24 +25 +25 комфорт 1013.8 1001.3
08 23.10 Ю 3 н/о н/о +25.3 +3.9 25 +24 +24 комфорт 1014.3 1001.8
09 23.10 штиль 0 н/о н/о +22.1 +8.6 42 +23 +23 комфорт 1014.8 1002.3
10 23.10 СВ 1 н/о н/о +19.9 +12.9 64 +23 +23 комфорт 1015.5 1003.0
11 23.10 штиль 0 н/о н/о +18.2 +11.3 64 +18 +18 1016.5 1004.0
12 23.10 СВ 3 н/о н/о +17.5 +13.6 78 +18 +18 1017.1 1004.5
13 23.10 С 2 н/о н/о +17.0 +12.1 73 +18 +18 1017.4 1004.8 +26.8
14 23.10 СВ 3 н/о н/о +16.2 +11.2 72 +16 +16 1017.1 1004.5
15 23.10 штиль 0 н/о н/о +16.2 +9.4 64 +16 +16 1016.5 1004.0
16 23.10 С 2 н/о н/о +14.8 +11.4 80 +15 +15 1016.3 1003.8

 

Местоположение метеостанции Bourke Airport Aws (Новый Южный Уэльс, Австралия): широта -30.03 долгота 145.95 высота над уровнем моря 108 м.

В архиве по умолчанию представлена погода в Bourke Airport Aws за последнюю неделю. Архивные данные за месяц целиком и за предыдущие месяцы, начиная с января 2011 года, Вы можете получить, выбрав интересующий диапазон дат из раскрывающегося списка и нажав кнопку "Ввод!".

Внимание! Время в таблицах - всемирное. Для получения местного времени необходимо прибавить поправку, которая в Bourke Airport Aws равна 10 ч.

Смотрите также архив погоды в соседних городах и на ближайших метеорологических станциях:

Погода в Cobar Mo (Новый Южный Уэльс, Австралия) (162 км)
Погода в Cobar Airport Aws (Новый Южный Уэльс, Австралия) (167 км)
Погода в Walgett Airport Aws (Новый Южный Уэльс, Австралия) (209 км)
Погода в Coonamble Airport (Новый Южный Уэльс, Австралия) (256 км)
Погода в Trangie Research Stn (Новый Южный Уэльс, Австралия) (289 км)
Погода в White Cliffs Aws (Новый Южный Уэльс, Австралия) (291 км)
Погода в Wilcannia Aerodrome (Новый Южный Уэльс, Австралия) (296 км)
Погода в Thargomindah Airport (Квинсленд, Австралия) (309 км)
Погода в St George Airport (Квинсленд, Австралия) (339 км)
Погода в Dubbo Airport Aws (Новый Южный Уэльс, Австралия) (347 км)

Пояснения к столбцам:

Ветер - указаны скорость ветра в м/с - средняя за 10 мин, порывы в срок и между сроками (в фигурных скобках) и направление, откуда дует ветер: С - северный, СВ - северо-восточный, В - восточный, ЮВ - юго-восточный, Ю - южный, ЮЗ - юго-западный, З - западный, СЗ - северо-западный.
Видимость - горизонтальная дальность видимости в метрах или километрах. При видимости от 1 до 10 км при отсутствии осадков обычно наблюдается дымка, при ухудшении видимости до 1 км и менее - туман. В сухую погоду видимость может ухудшаться дымом, пылью или мглою.
Явления - указаны атмосферные явления, наблюдавшиеся в срок или в последний час перед сроком; фигурными скобками обозначены явления, наблюдавшиеся между сроками (за 1-3 часа до срока); квадратными скобками обозначены град или гололедные отложения с указанием их диаметра в мм.
Облачность - указаны через наклонную черту общая и нижняя облачность в баллах и высота нижней границы облаков в метрах; квадратными скобками обозначены формы облаков: Ci - перистые, Cs - перисто-слоистые, Cc - перисто-кучевые, Ac - высококучевые, As - высокослоистые, Sc - слоисто-кучевые, Ns - слоисто-дождевые, Cu - кучевые, Cb - кучево-дождевые. Подробнее классификацию облаков см. в Атласе облаков (PDF).
T - Температура воздуха - температура, измеренная на высоте 2 м над землей.
Td - Температура точки росы - температура, при понижении до которой содержащийся в воздухе водяной пар достигнет насыщения.
f - Относительная влажность воздуха - влажноcть воздуха, измеренная на высоте 2 м над землей.
Te - Эффективная температура - температура, которую ощущает одетый по сезону человек в тени. Характеристика душности погоды. При расчете учитывается влияние влажности воздуха и скорости ветра на теплоощущения человека.
Tes - Эффективная температура на солнце - температура, которую ощущает человек, с поправкой на солнечный нагрев. Характеристика знойности погоды. Зависит от высоты солнца над горизонтом, облачности и скорости ветра. Ночью, в пасмурную погоду, а также при ветре 12 м/с и более поправка равна нулю.
P - Атмосферное давление - приведенное к уровню моря атмосферное давление.
Po - Атмосферное давление - измеренное на уровне метеостанции атмосферное давление.
Tmin - Минимальная температура - минимум температуры воздуха на высоте 2 м над землей.
Tmax - Максимальная температура - максимум температуры воздуха на высоте 2 м над землей.
R - Количество осадков - Количество выпавших осадков за период времени, мм. При наведении курсора мыши на число - период времени, за который выпало указанное количество осадков.
R24 - Количество осадков - Количество выпавших осадков за 24 часа, мм.
S - Снежный покров - Высота снежного покрова, см. При наведении курсора мыши на число - состояние снежного покрова и степень покрытия местности в баллах.